Location: Bosdarros
(43.2167°N, 0.3667°W)
Time: 16:39:09
(UTC+00:00)

FALCON 9 DEB - Pass Details

Date: 22 April 2021
Orbit: 368 x 387 km, 53.0° (Epoch: 12 May)

Event Time Altitude Azimuth Distance (km) Brightness Sun altitude
Rises 20:33:21 0° 241° (WSW) 2,207 7.0 -17.1°
Reaches altitude 10° 20:35:24 10° 245° (WSW) 1,361 6.0 -17.4°
Maximum altitude 20:38:24 61° 327° (NNW) 424 3.3 -17.8°
Enters shadow 20:40:25 19° 44° (NE) 965 4.8 -18.1°
